Lamar, CO

12:26 PM MST on December 07, 2019 (GMT -0700)
Lamar Municipal

Weather History for KLAA - October, 2019

Change the Weather History Date:

Tuesday, October 8, 2019

  Actual Average Record
Temperature  
Mean Temperature 61 °F 56 °F  
Max Temperature 89 °F 74 °F 94 °F (1926)
Min Temperature 33 °F 39 °F 25 °F (1970)
Degree Days  
Heating Degree Days 4 9  
Month to date heating degree days 54 62  
Since 1 July heating degree days 60 145  
Cooling Degree Days 0 1  
Month to date cooling degree days 1 8  
Year to date cooling degree days 1406 1120  
Growing Degree Days 11 (Base 50)    
Moisture  
Dew Point 32 °F    
Average Humidity 50    
Maximum Humidity 89    
Minimum Humidity 10    
Precipitation  
Precipitation 0.00 in 0.02 in 0.54 in (1957)
Month to date precipitation 0.01 0.21  
Year to date precipitation 7.76 13.83  
Sea Level Pressure  
Sea Level Pressure 29.73 in    
Wind  
Wind Speed 7 mph (South)    
Max Wind Speed 20 mph    
Max Gust Speed 27 mph    
Visibility 10 miles    
Events      
T = Trace of Precipitation, MM = Missing Value Source: NWS Daily Summary

Daily Weather History Graph

Daily Weather History Graph

Search for Another Location

Airport or City:

Astronomy

Oct. 08, 2019 Rise Set
Actual Time 6:52 AM MDT 6:23 PM MDT
Civil Twilight 6:26 AM MDT 6:49 PM MDT
Nautical Twilight 5:55 AM MDT 7:20 PM MDT
Astronomical Twilight 5:25 AM MDT 7:50 PM MDT
Moon 4:17 PM MDT (10/8) 1:50 AM MDT (10/8)
Length of Visible Light 12h 23m
Length of Day
11h 30m
Waxing Gibbous, 78% of the Moon is Illuminated
Oct 8
Waxing Gibbous
Oct 13
Full
Oct 21
Last Quarter
Oct 27
New
Nov 4
First Quarter

Hourly Weather History & Observations

Time (MDT) Temp. Windchill Dew Point Humidity Pressure Visibility Wind Dir Wind Speed Gust Speed Precip Events Conditions
12:53 AM 46.9 °F - 33.1 °F 59% 29.88 in 10.0 mi SE 3.5 mph - N/A   Clear
1:53 AM 42.1 °F - 32.0 °F 67% 29.88 in 10.0 mi Calm Calm - N/A   Clear
2:53 AM 41.0 °F 39.0 °F 30.9 °F 67% 29.86 in 10.0 mi WNW 3.5 mph - N/A   Clear
3:53 AM 39.0 °F - 30.9 °F 73% 29.84 in 10.0 mi Calm Calm - N/A   Clear
4:53 AM 34.0 °F 31.0 °F 27.0 °F 75% 29.84 in 10.0 mi West 3.5 mph - N/A   Clear
5:53 AM 35.1 °F - 28.9 °F 78% 29.85 in 10.0 mi Calm Calm - N/A   Clear
6:53 AM 34.0 °F 29.8 °F 30.0 °F 85% 29.86 in 10.0 mi NW 4.6 mph - N/A   Clear
7:53 AM 39.9 °F 37.8 °F 32.0 °F 73% 29.87 in 10.0 mi Variable 3.5 mph - N/A   Clear
8:53 AM 53.1 °F - 32.0 °F 45% 29.83 in 10.0 mi WSW 8.1 mph - N/A   Clear
9:53 AM 62.1 °F - 30.9 °F 31% 29.81 in 10.0 mi West 6.9 mph - N/A   Clear
10:53 AM 72.0 °F - 28.0 °F 20% 29.77 in 10.0 mi WSW 6.9 mph - N/A   Clear
11:53 AM 78.1 °F - 28.0 °F 16% 29.74 in 10.0 mi SSW 5.8 mph - N/A   Clear
12:53 PM 82.9 °F - 27.0 °F 13% 29.70 in 10.0 mi NNE 4.6 mph - N/A   Clear
1:53 PM 84.0 °F - 26.1 °F 12% 29.66 in 10.0 mi NNE 3.5 mph - N/A   Clear
2:53 PM 88.0 °F - 25.0 °F 10% 29.63 in 10.0 mi East 5.8 mph - N/A   Clear
3:53 PM 86.0 °F - 24.1 °F 10% 29.62 in 10.0 mi East 9.2 mph - N/A   Clear
4:53 PM 87.1 °F - 26.1 °F 11% 29.62 in 10.0 mi East 10.4 mph - N/A   Clear
5:53 PM 81.0 °F - 25.0 °F 13% 29.64 in 10.0 mi South 11.5 mph - N/A   Clear
6:53 PM 73.9 °F - 39.0 °F 28% 29.65 in 10.0 mi SSE 13.8 mph - N/A   Clear
7:53 PM 71.1 °F - 44.1 °F 38% 29.64 in 10.0 mi SSE 15.0 mph - N/A   Clear
8:53 PM 69.1 °F - 48.0 °F 47% 29.61 in 10.0 mi SSE 18.4 mph - N/A   Clear
9:53 PM 64.9 °F - 45.0 °F 48% 29.60 in 10.0 mi SSE 17.3 mph - N/A   Clear
10:53 PM 57.0 °F - 43.0 °F 59% 29.60 in 9.0 mi SW 4.6 mph - N/A   Clear
11:53 PM 54.0 °F - 43.0 °F 66% 29.59 in 10.0 mi Calm Calm - N/A   Clear